| time (UTC) | temp C | wind direction | speed KPH | gust KPH | rain 1hr cm | rain 24hr cm | rain mn cm | humidity % | barometer mb |
| 20260510050016 | 7 | 156 | 1.6 | 4.8 | 0.00 | 0.00 | 0.00 | 78 | 1015.8 |
| 20260510044527 | 7 | 162 | 1.6 | 6.4 | 0.00 | 0.00 | 0.00 | 78 | 1016.1 |
| 20260510043013 | 6 | 117 | 3.2 | 4.8 | 0.00 | 0.00 | 0.00 | 78 | 1016.2 |
| 20260510041512 | 6 | 158 | 1.6 | 3.2 | 0.00 | 0.00 | 0.00 | 78 | 1016.6 |
| 20260510040011 | 6 | 144 | 0.0 | 1.6 | 0.00 | 0.00 | 0.00 | 78 | 1016.7 |
| 20260510034508 | 6 | 157 | 0.0 | 1.6 | 0.00 | 0.00 | 0.00 | 78 | 1016.7 |
| 20260510033007 | 6 | 148 | 0.0 | 1.6 | 0.00 | 0.00 | 0.00 | 78 | 1016.7 |
| 20260510031505 | 5 | 195 | 0.0 | 1.6 | 0.00 | 0.00 | 0.00 | 78 | 1016.8 |
| 20260510030003 | 5 | 153 | 0.0 | 1.6 | 0.00 | 0.00 | 0.00 | 78 | 1016.9 |
| 20260510024502 | 5 | 146 | 0.0 | 1.6 | 0.00 | 0.00 | 0.00 | 78 | 1017.1 |
| 20260510023100 | 5 | 203 | 0.0 | 3.2 | 0.00 | 0.00 | 0.00 | 77 | 1017.3 |
| 20260510021601 | 5 | 167 | 1.6 | 4.8 | 0.00 | 0.00 | 0.00 | 78 | 1017.3 |
| 20260510020057 | 6 | 174 | 3.2 | 6.4 | 0.00 | 0.00 | 0.00 | 77 | 1017.4 |
| 20260510014555 | 6 | 162 | 1.6 | 4.8 | 0.00 | 0.00 | 0.00 | 77 | 1017.6 |
| 20260510013052 | 5 | 179 | 1.6 | 4.8 | 0.00 | 0.00 | 0.00 | 77 | 1017.8 |
| 20260510011550 | 6 | 205 | 1.6 | 3.2 | 0.00 | 0.00 | 0.00 | 77 | 1018.0 |
| 20260510010048 | 6 | 211 | 1.6 | 4.8 | 0.00 | 0.00 | 0.00 | 77 | 1018.2 |
| 20260510004545 | 5 | 203 | 1.6 | 1.6 | 0.00 | 0.00 | 0.00 | 77 | 1018.5 |
| 20260510003043 | 5 | 176 | 0.0 | 1.6 | 0.00 | 0.00 | 0.00 | 77 | 1018.8 |
| 20260510001544 | 5 | 203 | 0.0 | 3.2 | 0.00 | 0.00 | 0.00 | 76 | 1018.9 |
| 20260510000058 | 5 | 218 | 0.0 | 1.6 | 0.00 | 0.00 | 0.00 | 76 | 1019.4 |
| 20260509234548 | 5 | 226 | 0.0 | 1.6 | 0.00 | 0.00 | 0.00 | 75 | 1019.5 |
| 20260509233034 | 5 | 240 | 0.0 | 1.6 | 0.00 | 0.00 | 0.00 | 75 | 1019.6 |
| 20260509231531 | 6 | 268 | 0.0 | 3.2 | 0.00 | 0.00 | 0.00 | 74 | 1019.8 |
| 20260509230028 | 6 | 248 | 1.6 | 4.8 | 0.00 | 0.00 | 0.00 | 73 | 1020.0 |
| 20260509224526 | 6 | 226 | 1.6 | 3.2 | 0.00 | 0.00 | 0.00 | 72 | 1020.0 |
| 20260509223023 | 6 | 224 | 0.0 | 3.2 | 0.00 | 0.00 | 0.00 | 71 | 1020.1 |
| 20260509221521 | 6 | 221 | 1.6 | 3.2 | 0.00 | 0.00 | 0.00 | 70 | 1020.3 |
| 20260509220020 | 7 | 216 | 3.2 | 4.8 | 0.00 | 0.00 | 0.00 | 69 | 1020.3 |
| 20260509214526 | 7 | 236 | 1.6 | 3.2 | 0.00 | 0.00 | 0.00 | 68 | 1020.3 |
| 20260509213017 | 7 | 217 | 0.0 | 1.6 | 0.00 | 0.00 | 0.00 | 69 | 1020.4 |
| 20260509211519 | 7 | 222 | 0.0 | 3.2 | 0.00 | 0.00 | 0.00 | 67 | 1020.3 |
| 20260509210017 | 8 | 222 | 0.0 | 1.6 | 0.00 | 0.00 | 0.00 | 66 | 1020.5 |
| 20260509204523 | 9 | 245 | 0.0 | 1.6 | 0.00 | 0.00 | 0.00 | 65 | 1020.6 |
| 20260509203015 | 10 | 239 | 0.0 | 3.2 | 0.00 | 0.00 | 0.00 | 62 | 1020.5 |
| 20260509201515 | 10 | 251 | 1.6 | 3.2 | 0.00 | 0.00 | 0.00 | 60 | 1020.5 |
| 20260509200014 | 10 | 252 | 1.6 | 4.8 | 0.00 | 0.00 | 0.00 | 57 | 1020.5 |
| 20260509194517 | 11 | 235 | 1.6 | 4.8 | 0.00 | 0.00 | 0.00 | 55 | 1020.6 |
| 20260509193013 | 11 | 263 | 1.6 | 6.4 | 0.00 | 0.00 | 0.00 | 53 | 1020.5 |
| 20260509191518 | 12 | 229 | 1.6 | 6.4 | 0.00 | 0.00 | 0.00 | 52 | 1020.5 |
| 20260509190013 | 12 | 237 | 0.0 | 3.2 | 0.00 | 0.00 | 0.00 | 53 | 1020.4 |
| 20260509184515 | 12 | 244 | 0.0 | 1.6 | 0.00 | 0.00 | 0.00 | 58 | 1020.2 |
| 20260509183012 | 13 | 283 | 0.0 | 1.6 | 0.00 | 0.00 | 0.00 | 61 | 1020.1 |
| 20260509181512 | 13 | 333 | 0.0 | 4.8 | 0.00 | 0.00 | 0.00 | 63 | 1020.3 |
| 20260509180013 | 12 | 325 | 1.6 | 8.0 | 0.00 | 0.00 | 0.00 | 66 | 1020.2 |
| 20260509174509 | 12 | 347 | 4.8 | 9.7 | 0.00 | 0.00 | 0.00 | 73 | 1020.1 |
| 20260509173008 | 12 | 23 | 8.0 | 14.5 | 0.00 | 0.00 | 0.00 | 74 | 1020.2 |
| 20260509171507 | 12 | 6 | 9.7 | 16.1 | 0.00 | 0.00 | 0.00 | 75 | 1020.1 |
| 20260509170006 | 12 | 338 | 9.7 | 17.7 | 0.00 | 0.00 | 0.00 | 74 | 1020.3 |
| 20260509164605 | 12 | 343 | 9.7 | 24.1 | 0.00 | 0.00 | 0.00 | 72 | 1020.2 |
| 20260509163003 | 15 | 333 | 11.3 | 17.7 | 0.00 | 0.00 | 0.00 | 64 | 1020.2 |
| 20260509161502 | 15 | 220 | 9.7 | 12.9 | 0.00 | 0.00 | 0.00 | 41 | 1020.3 |
| 20260509160100 | 14 | 50 | 1.6 | 9.7 | 0.00 | 0.00 | 0.00 | 59 | 1020.5 |
| 20260509154558 | 15 | 281 | 8.0 | 16.1 | 0.00 | 0.00 | 0.00 | 56 | 1020.6 |
| 20260509153055 | 15 | 233 | 6.4 | 14.5 | 0.00 | 0.00 | 0.00 | 40 | 1020.8 |
| 20260509151557 | 13 | 47 | 8.0 | 14.5 | 0.00 | 0.00 | 0.00 | 59 | 1020.9 |
| 20260509150047 | 12 | 94 | 3.2 | 16.1 | 0.00 | 0.00 | 0.00 | 70 | 1021.0 |
| 20260509144645 | 12 | 62 | 11.3 | 14.5 | 0.00 | 0.00 | 0.00 | 73 | 1021.1 |
| 20260509143054 | 12 | 43 | 9.7 | 17.7 | 0.00 | 0.00 | 0.00 | 73 | 1021.2 |
| 20260509141542 | 12 | 64 | 11.3 | 16.1 | 0.00 | 0.00 | 0.00 | 73 | 1021.5 |
| 20260509140040 | 12 | 40 | 9.7 | 14.5 | 0.00 | 0.00 | 0.00 | 72 | 1021.5 |
| 20260509134559 | 12 | 35 | 14.5 | 17.7 | 0.00 | 0.00 | 0.00 | 71 | 1021.7 |
| 20260509133043 | 12 | 51 | 11.3 | 19.3 | 0.00 | 0.00 | 0.00 | 71 | 1022.1 |
| 20260509131537 | 12 | 51 | 9.7 | 19.3 | 0.00 | 0.00 | 0.00 | 69 | 1022.3 |
| 20260509130044 | 12 | 41 | 11.3 | 17.7 | 0.00 | 0.00 | 0.00 | 68 | 1022.3 |
| 20260509124535 | 12 | 60 | 11.3 | 19.3 | 0.00 | 0.00 | 0.00 | 67 | 1022.6 |
| 20260509123030 | 12 | 32 | 9.7 | 16.1 | 0.00 | 0.00 | 0.00 | 67 | 1022.9 |
| 20260509121541 | 12 | 53 | 9.7 | 16.1 | 0.00 | 0.00 | 0.00 | 64 | 1022.9 |
| 20260509120029 | 12 | 52 | 12.9 | 16.1 | 0.00 | 0.00 | 0.00 | 64 | 1023.0 |
| 20260509114533 | 12 | 31 | 12.9 | 17.7 | 0.00 | 0.00 | 0.00 | 60 | 1023.1 |
| 20260509113032 | 12 | 44 | 12.9 | 20.9 | 0.00 | 0.00 | 0.00 | 62 | 1023.1 |
| 20260509111523 | 11 | 25 | 9.7 | 16.1 | 0.00 | 0.00 | 0.00 | 65 | 1023.3 |
| 20260509110022 | 11 | 40 | 12.9 | 16.1 | 0.00 | 0.00 | 0.00 | 64 | 1023.4 |
| 20260509104535 | 11 | 23 | 14.5 | 20.9 | 0.00 | 0.00 | 0.00 | 63 | 1023.5 |
| 20260509103021 | 11 | 35 | 19.3 | 24.1 | 0.00 | 0.00 | 0.00 | 58 | 1023.4 |
| 20260509101522 | 12 | 50 | 8.0 | 9.7 | 0.00 | 0.00 | 0.00 | 46 | 1023.5 |
| 20260509100017 | 12 | 47 | 6.4 | 8.0 | 0.00 | 0.00 | 0.00 | 45 | 1023.7 |
| 20260509094527 | 12 | 52 | 3.2 | 4.8 | 0.00 | 0.00 | 0.00 | 44 | 1023.7 |
| 20260509093013 | 12 | 89 | 3.2 | 4.8 | 0.00 | 0.00 | 0.00 | 42 | 1023.8 |
| 20260509091514 | 12 | 128 | 3.2 | 9.7 | 0.00 | 0.00 | 0.00 | 45 | 1023.9 |
| 20260509090009 | 12 | 144 | 4.8 | 9.7 | 0.00 | 0.00 | 0.00 | 45 | 1023.9 |
| 20260509084507 | 11 | 98 | 3.2 | 9.7 | 0.00 | 0.00 | 0.00 | 45 | 1024.0 |
| 20260509083003 | 11 | 91 | 4.8 | 9.7 | 0.00 | 0.00 | 0.00 | 51 | 1024.0 |
| 20260509081611 | 11 | 131 | 3.2 | 6.4 | 0.00 | 0.00 | 0.00 | 52 | 1024.1 |
| 20260509080056 | 10 | 115 | 4.8 | 8.0 | 0.00 | 0.00 | 0.00 | 52 | 1024.1 |
| 20260509074557 | 10 | 131 | 4.8 | 9.7 | 0.00 | 0.00 | 0.00 | 53 | 1024.1 |
| 20260509073057 | 10 | 144 | 4.8 | 11.3 | 0.00 | 0.00 | 0.00 | 53 | 1024.2 |
| 20260509071555 | 9 | 125 | 8.0 | 12.9 | 0.00 | 0.00 | 0.00 | 54 | 1024.4 |
| 20260509070047 | 8 | 137 | 8.0 | 12.9 | 0.00 | 0.00 | 0.00 | 57 | 1024.5 |
| 20260509064551 | 8 | 117 | 8.0 | 12.9 | 0.00 | 0.00 | 0.00 | 56 | 1024.5 |
| 20260509063042 | 8 | 146 | 6.4 | 11.3 | 0.00 | 0.00 | 0.00 | 58 | 1024.3 |
| 20260509061537 | 8 | 119 | 9.7 | 14.5 | 0.00 | 0.00 | 0.00 | 59 | 1024.3 |
| 20260509060038 | 8 | 117 | 9.7 | 14.5 | 0.00 | 0.00 | 0.00 | 62 | 1024.2 |
| 20260509054544 | 7 | 115 | 9.7 | 14.5 | 0.00 | 0.00 | 0.00 | 65 | 1024.3 |
| 20260509053033 | 7 | 97 | 8.0 | 12.9 | 0.00 | 0.00 | 0.00 | 67 | 1024.5 |
| 20260509051533 | 7 | 113 | 9.7 | 14.5 | 0.00 | 0.00 | 0.00 | 66 | 1024.4 |